| time (UTC) | temp C | wind direction | speed KPH | gust KPH | rain 1hr cm | rain 24hr cm | rain mn cm | humidity % | barometer mb |
| 20260904003501 | 20 | 220 | 9.7 | 17.7 | 0.00 | 0.00 | 0.00 | ||
| 20260904003059 | 20 | 230 | 8.0 | 14.5 | 0.00 | 0.00 | 0.00 | ||
| 20260904002658 | 20 | 231 | 8.0 | 16.1 | 0.00 | 0.00 | 0.00 | ||
| 20260904002257 | 20 | 213 | 9.7 | 17.7 | 0.00 | 0.00 | 0.00 | ||
| 20260904001855 | 20 | 211 | 8.0 | 20.9 | 0.00 | 0.00 | 0.00 | ||
| 20260904001453 | 20 | 215 | 9.7 | 14.5 | 0.00 | 0.00 | 0.00 | ||
| 20260904001052 | 20 | 226 | 9.7 | 14.5 | 0.00 | 0.00 | 0.00 | ||
| 20260904000650 | 20 | 235 | 8.0 | 12.9 | 0.00 | 0.00 | 0.00 | ||
| 20260904000249 | 20 | 232 | 9.7 | 14.5 | 0.00 | 0.00 | 0.00 | ||
| 20260903235846 | 20 | 233 | 8.0 | 12.9 | 0.00 | 0.00 | 0.00 | ||
| 20260903235437 | 20 | 233 | 8.0 | 14.5 | 0.00 | 0.00 | 0.00 | ||
| 20260903235036 | 20 | 223 | 9.7 | 14.5 | 0.00 | 0.00 | 0.00 | ||
| 20260903234231 | 20 | 214 | 8.0 | 16.1 | 0.00 | 0.00 | 0.00 | ||
| 20260903233830 | 21 | 205 | 9.7 | 19.3 | 0.00 | 0.00 | 0.00 | ||
| 20260903233027 | 21 | 219 | 6.4 | 14.5 | 0.00 | 0.00 | 0.00 | ||
| 20260903232625 | 21 | 220 | 8.0 | 16.1 | 0.00 | 0.00 | 0.00 | ||
| 20260903232224 | 20 | 223 | 8.0 | 12.9 | 0.00 | 0.00 | 0.00 | ||
| 20260903231822 | 20 | 226 | 11.3 | 17.7 | 0.00 | 0.00 | 0.00 | ||
| 20260903231414 | 20 | 234 | 11.3 | 16.1 | 0.00 | 0.00 | 0.00 | ||
| 20260903231012 | 21 | 229 | 9.7 | 14.5 | 0.00 | 0.00 | 0.00 | ||
| 20260903230610 | 20 | 239 | 9.7 | 14.5 | 0.00 | 0.00 | 0.00 | ||
| 20260903230209 | 20 | 229 | 9.7 | 16.1 | 0.00 | 0.00 | 0.00 | ||
| 20260903225807 | 20 | 225 | 8.0 | 12.9 | 0.00 | 0.00 | 0.00 | ||
| 20260903225406 | 20 | 230 | 9.7 | 12.9 | 0.00 | 0.00 | 0.00 | ||
| 20260903225003 | 20 | 229 | 8.0 | 14.5 | 0.00 | 0.00 | 0.00 | ||
| 20260903224602 | 21 | 223 | 4.8 | 12.9 | 0.00 | 0.00 | 0.00 | ||
| 20260903224201 | 20 | 215 | 6.4 | 16.1 | 0.00 | 0.00 | 0.00 | ||
| 20260903223759 | 20 | 188 | 3.2 | 8.0 | 0.00 | 0.00 | 0.00 | ||
| 20260903223350 | 20 | 180 | 3.2 | 6.4 | 0.00 | 0.00 | 0.00 | ||
| 20260903222948 | 20 | 180 | 3.2 | 6.4 | 0.00 | 0.00 | 0.00 | ||
| 20260903222547 | 20 | 188 | 3.2 | 8.0 | 0.00 | 0.00 | 0.00 | ||
| 20260903222146 | 19 | 202 | 1.6 | 3.2 | 0.00 | 0.00 | 0.00 | ||
| 20260903221743 | 19 | 186 | 4.8 | 6.4 | 0.00 | 0.00 | 0.00 | ||
| 20260903221342 | 18 | 168 | 3.2 | 6.4 | 0.00 | 0.00 | 0.00 | ||
| 20260903220940 | 18 | 164 | 3.2 | 4.8 | 0.00 | 0.00 | 0.00 | ||
| 20260903220539 | 18 | 158 | 1.6 | 3.2 | 0.00 | 0.00 | 0.00 | ||
| 20260903220138 | 18 | 157 | 1.6 | 3.2 | 0.00 | 0.00 | 0.00 | ||
| 20260903215327 | 19 | 141 | 3.2 | 4.8 | 0.00 | 0.00 | 0.00 | ||
| 20260903214926 | 19 | 135 | 1.6 | 4.8 | 0.00 | 0.00 | 0.00 | ||
| 20260903214525 | 18 | 139 | 3.2 | 6.4 | 0.00 | 0.00 | 0.00 | ||
| 20260903214123 | 18 | 157 | 4.8 | 6.4 | 0.00 | 0.00 | 0.00 | ||
| 20260903213721 | 18 | 157 | 1.6 | 6.4 | 0.00 | 0.00 | 0.00 | ||
| 20260903213320 | 19 | 157 | 1.6 | 4.8 | 0.00 | 0.00 | 0.00 | ||
| 20260903212918 | 19 | 169 | 4.8 | 8.0 | 0.00 | 0.00 | 0.00 | ||
| 20260903212516 | 18 | 186 | 1.6 | 6.4 | 0.00 | 0.00 | 0.00 | ||
| 20260903212115 | 18 | 180 | 1.6 | 3.2 | 0.00 | 0.00 | 0.00 | ||
| 20260903211713 | 18 | 180 | 1.6 | 3.2 | 0.00 | 0.00 | 0.00 | ||
| 20260903211305 | 18 | 180 | 1.6 | 4.8 | 0.00 | 0.00 | 0.00 | ||
| 20260903210902 | 18 | 180 | 1.6 | 4.8 | 0.00 | 0.00 | 0.00 | ||
| 20260903210501 | 18 | 180 | 1.6 | 3.2 | 0.00 | 0.00 | 0.00 | ||
| 20260903210100 | 18 | 180 | 3.2 | 6.4 | 0.00 | 0.00 | 0.00 | ||
| 20260903205658 | 18 | 180 | 3.2 | 3.2 | 0.00 | 0.00 | 0.00 | ||
| 20260903205257 | 18 | 180 | 3.2 | 6.4 | 0.00 | 0.00 | 0.00 | ||
| 20260903204854 | 18 | 180 | 3.2 | 4.8 | 0.00 | 0.00 | 0.00 | ||
| 20260903204453 | 18 | 180 | 4.8 | 6.4 | 0.00 | 0.00 | 0.00 | ||
| 20260903203650 | 20 | 157 | 3.2 | 6.4 | 0.00 | 0.00 | 0.00 | ||
| 20260903203241 | 20 | 157 | 4.8 | 8.0 | 0.00 | 0.00 | 0.00 | ||
| 20260903202839 | 20 | 180 | 4.8 | 9.7 | 0.00 | 0.00 | 0.00 | ||
| 20260903202438 | 20 | 171 | 4.8 | 8.0 | 0.00 | 0.00 | 0.00 | ||
| 20260903202037 | 20 | 180 | 4.8 | 6.4 | 0.00 | 0.00 | 0.00 | ||
| 20260903201635 | 20 | 180 | 3.2 | 4.8 | 0.00 | 0.00 | 0.00 | ||
| 20260903201234 | 20 | 180 | 4.8 | 6.4 | 0.00 | 0.00 | 0.00 | ||
| 20260903200832 | 21 | 183 | 3.2 | 6.4 | 0.00 | 0.00 | 0.00 | ||
| 20260903200431 | 21 | 202 | 3.2 | 6.4 | 0.00 | 0.00 | 0.00 | ||
| 20260903195627 | 20 | 180 | 4.8 | 6.4 | 0.00 | 0.00 | 0.00 | ||
| 20260903195219 | 20 | 180 | 4.8 | 6.4 | 0.00 | 0.00 | 0.00 | ||
| 20260903194817 | 20 | 185 | 4.8 | 6.4 | 0.00 | 0.00 | 0.00 | ||
| 20260903194416 | 20 | 172 | 3.2 | 6.4 | 0.00 | 0.00 | 0.00 | ||
| 20260903194014 | 20 | 157 | 4.8 | 6.4 | 0.00 | 0.00 | 0.00 | ||
| 20260903193612 | 19 | 157 | 3.2 | 4.8 | 0.00 | 0.00 | 0.00 | ||
| 20260903193211 | 20 | 161 | 3.2 | 6.4 | 0.00 | 0.00 | 0.00 | ||
| 20260903192809 | 20 | 186 | 3.2 | 6.4 | 0.00 | 0.00 | 0.00 | ||
| 20260903192407 | 20 | 202 | 3.2 | 3.2 | 0.00 | 0.00 | 0.00 | ||
| 20260903192006 | 20 | 202 | 4.8 | 6.4 | 0.00 | 0.00 | 0.00 | ||
| 20260903191156 | 20 | 202 | 3.2 | 4.8 | 0.00 | 0.00 | 0.00 | ||
| 20260903190753 | 19 | 202 | 1.6 | 3.2 | 0.00 | 0.00 | 0.00 | ||
| 20260903190352 | 20 | 202 | 1.6 | 3.2 | 0.00 | 0.00 | 0.00 | ||
| 20260903185951 | 20 | 202 | 1.6 | 3.2 | 0.00 | 0.00 | 0.00 | ||
| 20260903185550 | 20 | 202 | 1.6 | 4.8 | 0.00 | 0.00 | 0.00 | ||
| 20260903185147 | 20 | 242 | 3.2 | 4.8 | 0.00 | 0.00 | 0.00 | ||
| 20260903184746 | 21 | 248 | 3.2 | 4.8 | 0.00 | 0.00 | 0.00 | ||
| 20260903184345 | 21 | 248 | 1.6 | 4.8 | 0.00 | 0.00 | 0.00 | ||
| 20260903183944 | 22 | 248 | 1.6 | 3.2 | 0.00 | 0.00 | 0.00 | ||
| 20260903183542 | 22 | 248 | 1.6 | 3.2 | 0.00 | 0.00 | 0.00 | ||
| 20260903183133 | 22 | 248 | 1.6 | 3.2 | 0.00 | 0.00 | 0.00 | ||
| 20260903182731 | 21 | 248 | 0.0 | 1.6 | 0.00 | 0.00 | 0.00 | ||
| 20260903182330 | 22 | 248 | 1.6 | 3.2 | 0.00 | 0.00 | 0.00 | ||
| 20260903181929 | 22 | 248 | 1.6 | 4.8 | 0.00 | 0.00 | 0.00 | ||
| 20260903181526 | 22 | 267 | 1.6 | 3.2 | 0.00 | 0.00 | 0.00 | ||
| 20260903181125 | 21 | 270 | 1.6 | 3.2 | 0.00 | 0.00 | 0.00 | ||
| 20260903180723 | 21 | 270 | 1.6 | 3.2 | 0.00 | 0.00 | 0.00 | ||
| 20260903180322 | 21 | 270 | 1.6 | 4.8 | 0.00 | 0.00 | 0.00 | ||
| 20260903175920 | 20 | 270 | 3.2 | 4.8 | 0.00 | 0.00 | 0.00 | ||
| 20260903175518 | 20 | 270 | 4.8 | 6.4 | 0.00 | 0.00 | 0.00 | ||
| 20260903175110 | 21 | 266 | 4.8 | 8.0 | 0.00 | 0.00 | 0.00 | ||
| 20260903174708 | 22 | 248 | 3.2 | 3.2 | 0.00 | 0.00 | 0.00 | ||
| 20260903174306 | 22 | 268 | 3.2 | 4.8 | 0.00 | 0.00 | 0.00 | ||
| 20260903173905 | 21 | 270 | 0.0 | 1.6 | 0.00 | 0.00 | 0.00 | ||
| 20260903173503 | 22 | 270 | 0.0 | 3.2 | 0.00 | 0.00 | 0.00 | ||
| 20260903173103 | 23 | 270 | 1.6 | 3.2 | 0.00 | 0.00 | 0.00 | ||
| 20260903172701 | 22 | 270 | 0.0 | 0.0 | 0.00 | 0.00 | 0.00 | ||
| 20260903172258 | 22 | 270 | 0.0 | 1.6 | 0.00 | 0.00 | 0.00 | ||
| 20260903171858 | 23 | 270 | 0.0 | 1.6 | 0.00 | 0.00 | 0.00 | ||
| 20260903171456 | 23 | 270 | 1.6 | 1.6 | 0.00 | 0.00 | 0.00 | ||
| 20260903171048 | 22 | 270 | 0.0 | 1.6 | 0.00 | 0.00 | 0.00 | ||
| 20260903170244 | 22 | 270 | 1.6 | 3.2 | 0.00 | 0.00 | 0.00 | ||
| 20260903165843 | 22 | 270 | 1.6 | 3.2 | 0.00 | 0.00 | 0.00 | ||
| 20260903165441 | 22 | 270 | 0.0 | 3.2 | 0.00 | 0.00 | 0.00 | ||
| 20260903165039 | 23 | 270 | 0.0 | 0.0 | 0.00 | 0.00 | 0.00 | ||
| 20260903164637 | 23 | 270 | 1.6 | 3.2 | 0.00 | 0.00 | 0.00 | ||
| 20260903164236 | 23 | 270 | 3.2 | 3.2 | 0.00 | 0.00 | 0.00 | ||
| 20260903163835 | 25 | 270 | 1.6 | 3.2 | 0.00 | 0.00 | 0.00 | ||
| 20260903163432 | 24 | 270 | 1.6 | 3.2 | 0.00 | 0.00 | 0.00 | ||
| 20260903163024 | 23 | 283 | 3.2 | 4.8 | 0.00 | 0.00 | 0.00 | ||
| 20260903162622 | 25 | 292 | 1.6 | 3.2 | 0.00 | 0.00 | 0.00 | ||
| 20260903162221 | 27 | 292 | 0.0 | 0.0 | 0.00 | 0.00 | 0.00 | ||
| 20260903161820 | 26 | 292 | 0.0 | 1.6 | 0.00 | 0.00 | 0.00 | ||
| 20260903161417 | 24 | 292 | 1.6 | 1.6 | 0.00 | 0.00 | 0.00 | ||
| 20260903161016 | 24 | 292 | 0.0 | 0.0 | 0.00 | 0.00 | 0.00 | ||
| 20260903160614 | 25 | 292 | 0.0 | 3.2 | 0.00 | 0.00 | 0.00 | ||
| 20260903160213 | 23 | 292 | 0.0 | 1.6 | 0.00 | 0.00 | 0.00 | ||
| 20260903155811 | 23 | 292 | 0.0 | 1.6 | 0.00 | 0.00 | 0.00 | ||
| 20260903155410 | 23 | 292 | 0.0 | 3.2 | 0.00 | 0.00 | 0.00 | ||
| 20260903155001 | 23 | 292 | 1.6 | 3.2 | 0.00 | 0.00 | 0.00 | ||
| 20260903154600 | 23 | 292 | 0.0 | 1.6 | 0.00 | 0.00 | 0.00 | ||
| 20260903154157 | 23 | 292 | 0.0 | 0.0 | 0.00 | 0.00 | 0.00 | ||
| 20260903153757 | 23 | 292 | 0.0 | 3.2 | 0.00 | 0.00 | 0.00 | ||
| 20260903153355 | 23 | 292 | 1.6 | 3.2 | 0.00 | 0.00 | 0.00 | ||
| 20260903152954 | 23 | 292 | 3.2 | 4.8 | 0.00 | 0.00 | 0.00 | ||
| 20260903152551 | 23 | 292 | 1.6 | 6.4 | 0.00 | 0.00 | 0.00 | ||
| 20260903152150 | 23 | 305 | 3.2 | 6.4 | 0.00 | 0.00 | 0.00 | ||
| 20260903151749 | 23 | 299 | 4.8 | 6.4 | 0.00 | 0.00 | 0.00 | ||
| 20260903151347 | 23 | 292 | 3.2 | 3.2 | 0.00 | 0.00 | 0.00 | ||
| 20260903150939 | 23 | 270 | 3.2 | 4.8 | 0.00 | 0.00 | 0.00 | ||
| 20260903150536 | 23 | 270 | 3.2 | 4.8 | 0.00 | 0.00 | 0.00 | ||
| 20260903150135 | 23 | 270 | 4.8 | 8.0 | 0.00 | 0.00 | 0.00 | ||
| 20260903145734 | 24 | 315 | 0.0 | 3.2 | 0.00 | 0.00 | 0.00 | ||
| 20260903145332 | 23 | 315 | 1.6 | 3.2 | 0.00 | 0.00 | 0.00 | ||
| 20260903144930 | 23 | 315 | 1.6 | 6.4 | 0.00 | 0.00 | 0.00 | ||
| 20260903144528 | 23 | 312 | 1.6 | 4.8 | 0.00 | 0.00 | 0.00 | ||
| 20260903144127 | 23 | 305 | 4.8 | 8.0 | 0.00 | 0.00 | 0.00 | ||
| 20260903143726 | 23 | 315 | 3.2 | 4.8 | 0.00 | 0.00 | 0.00 | ||
| 20260903143323 | 23 | 270 | 1.6 | 3.2 | 0.00 | 0.00 | 0.00 | ||
| 20260903142915 | 23 | 271 | 3.2 | 4.8 | 0.00 | 0.00 | 0.00 | ||
| 20260903142513 | 22 | 288 | 6.4 | 9.7 | 0.00 | 0.00 | 0.00 | ||
| 20260903142113 | 23 | 313 | 3.2 | 6.4 | 0.00 | 0.00 | 0.00 | ||
| 20260903141710 | 23 | 289 | 3.2 | 6.4 | 0.00 | 0.00 | 0.00 | ||
| 20260903141309 | 23 | 278 | 8.0 | 12.9 | 0.00 | 0.00 | 0.00 | ||
| 20260903140908 | 23 | 290 | 6.4 | 12.9 | 0.00 | 0.00 | 0.00 | ||
| 20260903140506 | 23 | 298 | 6.4 | 12.9 | 0.00 | 0.00 | 0.00 | ||
| 20260903140105 | 23 | 279 | 9.7 | 17.7 | 0.00 | 0.00 | 0.00 | ||
| 20260903135703 | 23 | 316 | 6.4 | 12.9 | 0.00 | 0.00 | 0.00 | ||
| 20260903135301 | 23 | 0 | 4.8 | 6.4 | 0.00 | 0.00 | 0.00 | ||
| 20260903134853 | 24 | 300 | 4.8 | 14.5 | 0.00 | 0.00 | 0.00 | ||
| 20260903134451 | 23 | 287 | 6.4 | 9.7 | 0.00 | 0.00 | 0.00 | ||
| 20260903134049 | 24 | 304 | 4.8 | 9.7 | 0.00 | 0.00 | 0.00 | ||
| 20260903133648 | 23 | 282 | 3.2 | 4.8 | 0.00 | 0.00 | 0.00 | ||
| 20260903133246 | 23 | 255 | 3.2 | 6.4 | 0.00 | 0.00 | 0.00 | ||
| 20260903132845 | 24 | 291 | 3.2 | 6.4 | 0.00 | 0.00 | 0.00 | ||
| 20260903132442 | 24 | 276 | 1.6 | 4.8 | 0.00 | 0.00 | 0.00 | ||
| 20260903132040 | 24 | 276 | 3.2 | 6.4 | 0.00 | 0.00 | 0.00 | ||
| 20260903131639 | 23 | 292 | 4.8 | 6.4 | 0.00 | 0.00 | 0.00 | ||
| 20260903131237 | 23 | 324 | 3.2 | 4.8 | 0.00 | 0.00 | 0.00 | ||
| 20260903130828 | 23 | 279 | 6.4 | 8.0 | 0.00 | 0.00 | 0.00 | ||
| 20260903130426 | 23 | 284 | 4.8 | 9.7 | 0.00 | 0.00 | 0.00 | ||
| 20260903130025 | 23 | 314 | 3.2 | 4.8 | 0.00 | 0.00 | 0.00 | ||
| 20260903125624 | 23 | 321 | 3.2 | 8.0 | 0.00 | 0.00 | 0.00 | ||
| 20260903125222 | 22 | 338 | 0.0 | 3.2 | 0.00 | 0.00 | 0.00 | ||
| 20260903124820 | 22 | 335 | 3.2 | 9.7 | 0.00 | 0.00 | 0.00 | ||
| 20260903124418 | 22 | 314 | 3.2 | 6.4 | 0.00 | 0.00 | 0.00 | ||
| 20260903124017 | 22 | 323 | 3.2 | 8.0 | 0.00 | 0.00 | 0.00 | ||
| 20260903123616 | 22 | 310 | 4.8 | 8.0 | 0.00 | 0.00 | 0.00 | ||
| 20260903123213 | 22 | 328 | 3.2 | 6.4 | 0.00 | 0.00 | 0.00 | ||
| 20260903122805 | 22 | 341 | 4.8 | 8.0 | 0.00 | 0.00 | 0.00 | ||
| 20260903122403 | 22 | 315 | 3.2 | 4.8 | 0.00 | 0.00 | 0.00 | ||
| 20260903122002 | 22 | 312 | 3.2 | 4.8 | 0.00 | 0.00 | 0.00 | ||
| 20260903121600 | 22 | 290 | 6.4 | 9.7 | 0.00 | 0.00 | 0.00 | ||
| 20260903121158 | 22 | 300 | 6.4 | 11.3 | 0.00 | 0.00 | 0.00 | ||
| 20260903120757 | 22 | 315 | 4.8 | 9.7 | 0.00 | 0.00 | 0.00 | ||
| 20260903120355 | 22 | 305 | 4.8 | 9.7 | 0.00 | 0.00 | 0.00 | ||
| 20260903115953 | 22 | 301 | 9.7 | 14.5 | 0.00 | 0.00 | 0.00 | ||
| 20260903115552 | 22 | 332 | 4.8 | 6.4 | 0.00 | 0.00 | 0.00 | ||
| 20260903115150 | 22 | 306 | 6.4 | 12.9 | 0.00 | 0.00 | 0.00 | ||
| 20260903114743 | 22 | 322 | 6.4 | 14.5 | 0.00 | 0.00 | 0.00 | ||
| 20260903114341 | 22 | 303 | 11.3 | 14.5 | 0.00 | 0.00 | 0.00 | ||
| 20260903113939 | 23 | 295 | 11.3 | 19.3 | 0.00 | 0.00 | 0.00 | ||
| 20260903112734 | 24 | 278 | 9.7 | 14.5 | 0.00 | 0.00 | 0.00 | ||
| 20260903112331 | 25 | 268 | 11.3 | 16.1 | 0.00 | 0.00 | 0.00 | ||
| 20260903111930 | 25 | 261 | 11.3 | 16.1 | 0.00 | 0.00 | 0.00 | ||
| 20260903111529 | 25 | 244 | 14.5 | 17.7 | 0.00 | 0.00 | 0.00 | ||
| 20260903111127 | 25 | 209 | 14.5 | 22.5 | 0.00 | 0.00 | 0.00 | ||
| 20260903110718 | 25 | 232 | 12.9 | 22.5 | 0.00 | 0.00 | 0.00 | ||
| 20260903110316 | 24 | 260 | 8.0 | 11.3 | 0.00 | 0.00 | 0.00 | ||
| 20260903105915 | 25 | 228 | 9.7 | 14.5 | 0.00 | 0.00 | 0.00 | ||
| 20260903105514 | 25 | 252 | 11.3 | 16.1 | 0.00 | 0.00 | 0.00 | ||
| 20260903105111 | 25 | 213 | 11.3 | 22.5 | 0.00 | 0.00 | 0.00 | ||
| 20260903104710 | 25 | 232 | 4.8 | 11.3 | 0.00 | 0.00 | 0.00 | ||
| 20260903104308 | 23 | 188 | 6.4 | 12.9 | 0.00 | 0.00 | 0.00 | ||
| 20260903103506 | 25 | 216 | 6.4 | 9.7 | 0.00 | 0.00 | 0.00 | ||
| 20260903103103 | 25 | 224 | 4.8 | 8.0 | 0.00 | 0.00 | 0.00 | ||
| 20260903102655 | 24 | 199 | 6.4 | 14.5 | 0.00 | 0.00 | 0.00 | ||
| 20260903102254 | 24 | 231 | 3.2 | 8.0 | 0.00 | 0.00 | 0.00 | ||
| 20260903101853 | 23 | 228 | 4.8 | 8.0 | 0.00 | 0.00 | 0.00 | ||
| 20260903101450 | 23 | 217 | 8.0 | 14.5 | 0.00 | 0.00 | 0.00 | ||
| 20260903101049 | 24 | 213 | 9.7 | 14.5 | 0.00 | 0.00 | 0.00 | ||
| 20260903100648 | 23 | 230 | 6.4 | 9.7 | 0.00 | 0.00 | 0.00 | ||
| 20260903095844 | 24 | 260 | 4.8 | 11.3 | 0.00 | 0.00 | 0.00 | ||
| 20260903095443 | 23 | 237 | 4.8 | 12.9 | 0.00 | 0.00 | 0.00 | ||
| 20260903095041 | 23 | 202 | 4.8 | 9.7 | 0.00 | 0.00 | 0.00 | ||
| 20260903094633 | 23 | 263 | 6.4 | 9.7 | 0.00 | 0.00 | 0.00 | ||
| 20260903094230 | 23 | 315 | 1.6 | 4.8 | 0.00 | 0.00 | 0.00 | ||
| 20260903093829 | 23 | 311 | 3.2 | 8.0 | 0.00 | 0.00 | 0.00 | ||
| 20260903093428 | 23 | 264 | 4.8 | 9.7 | 0.00 | 0.00 | 0.00 | ||
| 20260903093026 | 23 | 263 | 6.4 | 9.7 | 0.00 | 0.00 | 0.00 | ||
| 20260903092625 | 23 | 263 | 6.4 | 11.3 | 0.00 | 0.00 | 0.00 | ||
| 20260903092222 | 23 | 267 | 9.7 | 14.5 | 0.00 | 0.00 | 0.00 | ||
| 20260903091821 | 22 | 275 | 6.4 | 9.7 | 0.00 | 0.00 | 0.00 | ||
| 20260903091420 | 23 | 270 | 3.2 | 9.7 | 0.00 | 0.00 | 0.00 | ||
| 20260903091019 | 23 | 263 | 4.8 | 8.0 | 0.00 | 0.00 | 0.00 | ||
| 20260903090609 | 23 | 254 | 4.8 | 12.9 | 0.00 | 0.00 | 0.00 | ||
| 20260903090207 | 22 | 260 | 9.7 | 14.5 | 0.00 | 0.00 | 0.00 | ||
| 20260903085806 | 23 | 220 | 11.3 | 16.1 | 0.00 | 0.00 | 0.00 | ||
| 20260903085405 | 23 | 217 | 8.0 | 12.9 | 0.00 | 0.00 | 0.00 | ||
| 20260903085002 | 22 | 238 | 6.4 | 12.9 | 0.00 | 0.00 | 0.00 | ||
| 20260903084601 | 23 | 221 | 8.0 | 14.5 | 0.00 | 0.00 | 0.00 | ||
| 20260903084200 | 23 | 220 | 4.8 | 6.4 | 0.00 | 0.00 | 0.00 | ||
| 20260903083759 | 23 | 183 | 3.2 | 6.4 | 0.00 | 0.00 | 0.00 | ||
| 20260903083357 | 23 | 195 | 4.8 | 9.7 | 0.00 | 0.00 | 0.00 | ||
| 20260903082955 | 22 | 218 | 6.4 | 9.7 | 0.00 | 0.00 | 0.00 | ||
| 20260903082547 | 22 | 206 | 6.4 | 9.7 | 0.00 | 0.00 | 0.00 | ||
| 20260903082145 | 23 | 202 | 3.2 | 6.4 | 0.00 | 0.00 | 0.00 | ||
| 20260903081744 | 22 | 217 | 3.2 | 8.0 | 0.00 | 0.00 | 0.00 | ||
| 20260903081342 | 22 | 194 | 3.2 | 8.0 | 0.00 | 0.00 | 0.00 | ||
| 20260903080940 | 22 | 157 | 3.2 | 8.0 | 0.00 | 0.00 | 0.00 | ||
| 20260903080539 | 22 | 157 | 1.6 | 4.8 | 0.00 | 0.00 | 0.00 | ||
| 20260903080137 | 22 | 157 | 3.2 | 6.4 | 0.00 | 0.00 | 0.00 | ||
| 20260903075735 | 22 | 157 | 1.6 | 3.2 | 0.00 | 0.00 | 0.00 | ||
| 20260903075334 | 22 | 157 | 3.2 | 6.4 | 0.00 | 0.00 | 0.00 | ||
| 20260903074932 | 22 | 157 | 4.8 | 6.4 | 0.00 | 0.00 | 0.00 | ||
| 20260903074524 | 22 | 157 | 3.2 | 4.8 | 0.00 | 0.00 | 0.00 | ||
| 20260903074121 | 22 | 157 | 3.2 | 6.4 | 0.00 | 0.00 | 0.00 | ||
| 20260903073720 | 22 | 128 | 4.8 | 6.4 | 0.00 | 0.00 | 0.00 | ||
| 20260903073319 | 22 | 135 | 4.8 | 8.0 | 0.00 | 0.00 | 0.00 | ||
| 20260903072917 | 22 | 135 | 4.8 | 9.7 | 0.00 | 0.00 | 0.00 | ||
| 20260903072515 | 21 | 135 | 3.2 | 6.4 | 0.00 | 0.00 | 0.00 | ||
| 20260903072113 | 21 | 144 | 3.2 | 6.4 | 0.00 | 0.00 | 0.00 | ||
| 20260903071712 | 21 | 158 | 3.2 | 6.4 | 0.00 | 0.00 | 0.00 | ||
| 20260903071311 | 21 | 170 | 6.4 | 9.7 | 0.00 | 0.00 | 0.00 | ||
| 20260903070500 | 21 | 132 | 6.4 | 9.7 | 0.00 | 0.00 | 0.00 | ||
| 20260903070058 | 21 | 135 | 3.2 | 6.4 | 0.00 | 0.00 | 0.00 | ||
| 20260903065657 | 21 | 135 | 6.4 | 9.7 | 0.00 | 0.00 | 0.00 | ||
| 20260903065256 | 21 | 129 | 4.8 | 9.7 | 0.00 | 0.00 | 0.00 | ||
| 20260903064853 | 21 | 132 | 8.0 | 12.9 | 0.00 | 0.00 | 0.00 | ||
| 20260903064452 | 21 | 135 | 9.7 | 14.5 | 0.00 | 0.00 | 0.00 | ||
| 20260903064050 | 21 | 139 | 9.7 | 12.9 | 0.00 | 0.00 | 0.00 | ||
| 20260903063247 | 21 | 149 | 6.4 | 12.9 | 0.00 | 0.00 | 0.00 | ||
| 20260903062845 | 20 | 146 | 9.7 | 14.5 | 0.00 | 0.00 | 0.00 | ||
| 20260903062437 | 20 | 137 | 8.0 | 14.5 | 0.00 | 0.00 | 0.00 | ||
| 20260903062035 | 20 | 129 | 4.8 | 9.7 | 0.00 | 0.00 | 0.00 | ||
| 20260903061633 | 20 | 134 | 6.4 | 9.7 | 0.00 | 0.00 | 0.00 | ||
| 20260903061232 | 20 | 139 | 8.0 | 12.9 | 0.00 | 0.00 | 0.00 | ||
| 20260903060830 | 20 | 152 | 8.0 | 11.3 | 0.00 | 0.00 | 0.00 | ||
| 20260903060429 | 20 | 140 | 4.8 | 8.0 | 0.00 | 0.00 | 0.00 | ||
| 20260903060028 | 19 | 146 | 6.4 | 11.3 | 0.00 | 0.00 | 0.00 | ||
| 20260903055625 | 18 | 133 | 4.8 | 8.0 | 0.00 | 0.00 | 0.00 | ||
| 20260903055224 | 18 | 131 | 4.8 | 8.0 | 0.00 | 0.00 | 0.00 | ||
| 20260903054823 | 18 | 141 | 6.4 | 12.9 | 0.00 | 0.00 | 0.00 | ||
| 20260903054702 | 18 | 154 | 6.4 | 12.9 | 0.00 | 0.00 | 0.00 | ||
| 20260903054415 | 18 | 154 | 6.4 | 12.9 | 0.00 | 0.00 | 0.00 | ||
| 20260903054012 | 18 | 157 | 6.4 | 9.7 | 0.00 | 0.00 | 0.00 | ||
| 20260903053611 | 18 | 148 | 8.0 | 12.9 | 0.00 | 0.00 | 0.00 | ||
| 20260903053210 | 18 | 134 | 6.4 | 9.7 | 0.00 | 0.00 | 0.00 | ||
| 20260903052808 | 18 | 131 | 4.8 | 9.7 | 0.00 | 0.00 | 0.00 | ||
| 20260903052406 | 18 | 139 | 1.6 | 6.4 | 0.00 | 0.00 | 0.00 | ||
| 20260903052004 | 17 | 157 | 4.8 | 8.0 | 0.00 | 0.00 | 0.00 | ||
| 20260903051602 | 17 | 139 | 3.2 | 8.0 | 0.00 | 0.00 | 0.00 | ||
| 20260903051201 | 17 | 135 | 4.8 | 9.7 | 0.00 | 0.00 | 0.00 | ||
| 20260903050758 | 17 | 154 | 4.8 | 9.7 | 0.00 | 0.00 | 0.00 | ||
| 20260903050350 | 17 | 141 | 4.8 | 8.0 | 0.00 | 0.00 | 0.00 | ||
| 20260903045949 | 17 | 143 | 4.8 | 9.7 | 0.00 | 0.00 | 0.00 | ||
| 20260903045548 | 17 | 133 | 4.8 | 11.3 | 0.00 | 0.00 | 0.00 | ||
| 20260903045147 | 17 | 137 | 4.8 | 9.7 | 0.00 | 0.00 | 0.00 | ||
| 20260903044744 | 17 | 143 | 6.4 | 8.0 | 0.00 | 0.00 | 0.00 | ||
| 20260903044343 | 16 | 148 | 4.8 | 11.3 | 0.00 | 0.00 | 0.00 | ||
| 20260903043941 | 16 | 157 | 6.4 | 9.7 | 0.00 | 0.00 | 0.00 | ||
| 20260903043540 | 16 | 147 | 4.8 | 8.0 | 0.00 | 0.00 | 0.00 | ||
| 20260903043137 | 16 | 135 | 3.2 | 4.8 | 0.00 | 0.00 | 0.00 | ||
| 20260903042736 | 16 | 135 | 3.2 | 6.4 | 0.00 | 0.00 | 0.00 | ||
| 20260903042328 | 16 | 135 | 3.2 | 8.0 | 0.00 | 0.00 | 0.00 | ||
| 20260903041926 | 15 | 111 | 0.0 | 1.6 | 0.00 | 0.00 | 0.00 | ||
| 20260903041524 | 15 | 111 | 1.6 | 3.2 | 0.00 | 0.00 | 0.00 | ||
| 20260903041123 | 15 | 111 | 3.2 | 4.8 | 0.00 | 0.00 | 0.00 | ||
| 20260903040721 | 15 | 111 | 1.6 | 3.2 | 0.00 | 0.00 | 0.00 | ||
| 20260903040320 | 15 | 111 | 1.6 | 3.2 | 0.00 | 0.00 | 0.00 | ||
| 20260903035917 | 16 | 129 | 3.2 | 4.8 | 0.00 | 0.00 | 0.00 | ||
| 20260903035516 | 16 | 135 | 1.6 | 4.8 | 0.00 | 0.00 | 0.00 | ||
| 20260903035115 | 16 | 135 | 4.8 | 8.0 | 0.00 | 0.00 | 0.00 | ||
| 20260903034713 | 16 | 151 | 6.4 | 8.0 | 0.00 | 0.00 | 0.00 | ||
| 20260903034305 | 16 | 135 | 3.2 | 4.8 | 0.00 | 0.00 | 0.00 | ||
| 20260903033902 | 17 | 136 | 4.8 | 8.0 | 0.00 | 0.00 | 0.00 | ||
| 20260903033501 | 16 | 145 | 6.4 | 8.0 | 0.00 | 0.00 | 0.00 | ||
| 20260903033100 | 16 | 153 | 4.8 | 9.7 | 0.00 | 0.00 | 0.00 | ||
| 20260903032658 | 16 | 148 | 3.2 | 6.4 | 0.00 | 0.00 | 0.00 | ||
| 20260903032256 | 17 | 140 | 4.8 | 9.7 | 0.00 | 0.00 | 0.00 | ||
| 20260903031854 | 16 | 132 | 3.2 | 6.4 | 0.00 | 0.00 | 0.00 | ||
| 20260903031453 | 16 | 136 | 6.4 | 9.7 | 0.00 | 0.00 | 0.00 | ||
| 20260903031052 | 17 | 136 | 6.4 | 11.3 | 0.00 | 0.00 | 0.00 | ||
| 20260903030649 | 17 | 152 | 8.0 | 11.3 | 0.00 | 0.00 | 0.00 | ||
| 20260903030241 | 16 | 135 | 3.2 | 6.4 | 0.00 | 0.00 | 0.00 | ||
| 20260903025839 | 16 | 151 | 3.2 | 4.8 | 0.00 | 0.00 | 0.00 | ||
| 20260903025438 | 16 | 157 | 4.8 | 8.0 | 0.00 | 0.00 | 0.00 | ||
| 20260903025036 | 16 | 157 | 3.2 | 6.4 | 0.00 | 0.00 | 0.00 | ||
| 20260903024635 | 17 | 141 | 4.8 | 8.0 | 0.00 | 0.00 | 0.00 | ||
| 20260903024234 | 17 | 152 | 4.8 | 8.0 | 0.00 | 0.00 | 0.00 | ||
| 20260903023832 | 17 | 143 | 6.4 | 9.7 | 0.00 | 0.00 | 0.00 | ||
| 20260903023431 | 16 | 152 | 6.4 | 14.5 | 0.00 | 0.00 | 0.00 | ||
| 20260903023029 | 16 | 151 | 4.8 | 9.7 | 0.00 | 0.00 | 0.00 | ||
| 20260903022627 | 16 | 135 | 3.2 | 6.4 | 0.00 | 0.00 | 0.00 | ||
| 20260903022219 | 16 | 135 | 3.2 | 6.4 | 0.00 | 0.00 | 0.00 | ||
| 20260903021817 | 16 | 135 | 1.6 | 4.8 | 0.00 | 0.00 | 0.00 | ||
| 20260903021415 | 16 | 135 | 1.6 | 3.2 | 0.00 | 0.00 | 0.00 | ||
| 20260903020612 | 17 | 111 | 3.2 | 4.8 | 0.00 | 0.00 | 0.00 | ||
| 20260903020211 | 16 | 111 | 4.8 | 4.8 | 0.00 | 0.00 | 0.00 | ||
| 20260903015808 | 16 | 135 | 3.2 | 6.4 | 0.00 | 0.00 | 0.00 | ||
| 20260903015407 | 16 | 139 | 4.8 | 8.0 | 0.00 | 0.00 | 0.00 | ||
| 20260903015006 | 16 | 135 | 3.2 | 3.2 | 0.00 | 0.00 | 0.00 | ||
| 20260903014604 | 16 | 151 | 3.2 | 4.8 | 0.00 | 0.00 | 0.00 | ||
| 20260903014155 | 16 | 180 | 1.6 | 4.8 | 0.00 | 0.00 | 0.00 | ||
| 20260903013753 | 17 | 180 | 3.2 | 4.8 | 0.00 | 0.00 | 0.00 | ||
| 20260903013352 | 17 | 180 | 4.8 | 6.4 | 0.00 | 0.00 | 0.00 | ||
| 20260903012951 | 17 | 180 | 3.2 | 6.4 | 0.00 | 0.00 | 0.00 | ||
| 20260903012549 | 17 | 182 | 4.8 | 6.4 | 0.00 | 0.00 | 0.00 | ||
| 20260903012147 | 17 | 217 | 3.2 | 6.4 | 0.00 | 0.00 | 0.00 | ||
| 20260903011745 | 18 | 180 | 6.4 | 11.3 | 0.00 | 0.00 | 0.00 | ||
| 20260903010943 | 18 | 150 | 3.2 | 6.4 | 0.00 | 0.00 | 0.00 | ||
| 20260903010540 | 17 | 140 | 3.2 | 6.4 | 0.00 | 0.00 | 0.00 | ||
| 20260903010132 | 17 | 170 | 3.2 | 6.4 | 0.00 | 0.00 | 0.00 | ||
| 20260903005730 | 17 | 180 | 3.2 | 6.4 | 0.00 | 0.00 | 0.00 | ||
| 20260903005329 | 18 | 180 | 1.6 | 3.2 | 0.00 | 0.00 | 0.00 | ||
| 20260903004927 | 17 | 157 | 1.6 | 3.2 | 0.00 | 0.00 | 0.00 | ||
| 20260903004525 | 17 | 157 | 1.6 | 6.4 | 0.00 | 0.00 | 0.00 | ||
| 20260903004124 | 18 | 158 | 4.8 | 6.4 | 0.00 | 0.00 | 0.00 | ||
| 20260903003723 | 18 | 209 | 3.2 | 4.8 | 0.00 | 0.00 | 0.00 |